Location: Kitchener-Waterloo
(43.4500°N, 80.5000°W)
Time: 20:01:07
(UTC-04:00)

ISS - All Passes

Search period start: 28 June 2016 00:00
Search period end: 08 July 2016 00:00
Orbit: 402 x 403 km, 51.6° (Epoch: 28 June)

Date Brightness Start Highest point End Pass type
(mag) Time Alt. Az. Time Alt. Az. Time Alt. Az.
28 Jun - 08:36:24 10° SSE 08:37:52 13° SE 08:39:21 10° ESE daylight
28 Jun - 10:10:36 10° WSW 10:13:53 85° NNW 10:17:09 10° ENE daylight
28 Jun - 11:47:57 10° WNW 11:50:40 23° NNW 11:53:23 10° NE daylight
28 Jun - 13:25:23 10° NW 13:27:54 20° N 13:30:24 10° ENE daylight
28 Jun - 15:01:43 10° NW 15:04:53 48° NNE 15:08:05 10° ESE daylight
28 Jun - 16:38:28 10° W 16:41:11 24° SW 16:43:53 10° SSE daylight
29 Jun - 09:17:58 10° SW 09:21:09 51° SE 09:24:21 10° ENE daylight
29 Jun - 10:54:47 10° W 10:57:44 30° NNW 11:00:41 10° NE daylight
29 Jun - 12:32:27 10° NW 12:34:53 19° N 12:37:19 10° NE daylight
29 Jun - 14:09:02 10° NW 14:12:02 32° NNE 14:15:01 10° E daylight
29 Jun - 15:45:25 10° WNW 15:48:34 45° SW 15:51:41 10° SE daylight
30 Jun - 08:25:41 10° SSW 08:28:30 27° SE 08:31:20 10° ENE daylight
30 Jun - 10:01:42 10° W 10:04:51 43° NNW 10:08:00 10° NE daylight
30 Jun - 11:39:23 10° NW 11:41:52 20° N 11:44:22 10° NE daylight
30 Jun - 13:16:20 10° NW 13:19:05 24° NNE 13:21:51 10° ENE daylight
30 Jun - 14:52:34 10° WNW 14:55:51 85° SSW 14:59:06 10° SE daylight
30 Jun - 16:30:50 10° WSW 16:31:48 11° SW 16:32:45 10° SSW daylight
01 Jul - 07:33:58 10° S 07:35:56 15° SE 07:37:55 10° E daylight
01 Jul - 09:08:45 10° WSW 09:12:00 72° NNW 09:15:17 10° NE daylight
01 Jul - 10:46:13 10° WNW 10:48:52 22° NNW 10:51:31 10° NE daylight
01 Jul - 12:23:32 10° NW 12:26:06 21° N 12:28:40 10° ENE daylight
01 Jul - 13:59:49 10° NW 14:03:03 55° NNE 14:06:16 10° ESE daylight
01 Jul - 15:36:45 10° W 15:39:16 20° SW 15:41:45 10° S daylight
02 Jul - 08:16:01 10° SW 08:19:15 62° SE 08:22:29 10° ENE daylight
02 Jul - 09:53:01 10° W 09:55:53 28° NNW 09:58:46 10° NE daylight
02 Jul - 11:30:38 10° NW 11:33:05 19° N 11:35:31 10° NE daylight
02 Jul - 13:07:07 10° NW 13:10:10 35° NNE 13:13:14 10° E daylight
02 Jul - 14:43:34 10° WNW 14:46:38 37° SW 14:49:40 10° SSE daylight
03 Jul - 07:23:36 10° SSW 07:26:33 33° SE 07:29:32 10° ENE daylight
03 Jul - 08:59:52 10° W 09:02:58 38° NNW 09:06:04 10° NE daylight
03 Jul - 10:37:35 10° NW 10:40:02 19° N 10:42:30 10° NE daylight
03 Jul - 12:14:24 10° NW 12:17:14 26° NNE 12:20:04 10° ENE daylight
03 Jul - 13:50:40 10° WNW 13:53:55 71° SW 13:57:10 10° SE daylight
04 Jul - 06:31:39 10° S 06:33:56 18° SE 06:36:15 10° E daylight
04 Jul - 08:06:52 10° WSW 08:10:05 61° NNW 08:13:21 10° NE daylight
04 Jul - 09:44:24 10° WNW 09:47:00 21° N 09:49:37 10° NE daylight
04 Jul - 11:21:37 10° NW 11:24:14 21° N 11:26:51 10° ENE daylight
04 Jul - 12:57:53 10° NW 13:01:08 64° NNE 13:04:22 10° ESE daylight
04 Jul - 14:35:02 10° W 14:37:15 17° SW 14:39:28 10° S daylight
05 Jul - 07:14:02 10° SW 07:17:18 75° SE 07:20:34 10° ENE daylight
05 Jul - 08:51:11 10° WNW 08:54:00 26° NNW 08:56:49 10° NE daylight
05 Jul - 10:28:44 10° NW 10:31:12 19° N 10:33:40 10° NE daylight
05 Jul - 12:05:09 10° NW 12:08:16 40° NNE 12:11:22 10° E daylight
05 Jul - 13:41:42 10° WNW 13:44:39 31° SW 13:47:34 10° SSE daylight
06 Jul - 06:21:29 10° SSW 06:24:33 39° SE 06:27:38 10° ENE daylight
06 Jul - 07:58:00 10° W 08:01:01 34° NNW 08:04:04 10° NE daylight
06 Jul - 09:35:42 10° NW 09:38:09 19° N 09:40:35 10° NE daylight
06 Jul - 11:12:25 10° NW 11:15:19 28° NNE 11:18:13 10° E daylight
06 Jul - 12:48:43 10° WNW 12:51:57 59° SW 12:55:09 10° SE daylight
07 Jul - 05:29:20 10° S 05:31:53 21° SE 05:34:28 10° E daylight
07 Jul - 07:04:55 10° WSW 07:08:07 53° NNW 07:11:21 10° NE daylight
07 Jul - 08:42:32 10° WNW 08:45:05 20° N 08:47:38 10° NE daylight
07 Jul - 10:19:38 10° NW 10:22:19 23° NNE 10:24:59 10° ENE daylight
07 Jul - 11:55:52 10° NW 11:59:09 76° NNE 12:02:25 10° ESE daylight
07 Jul - 13:33:21 10° W 13:35:12 14° SW 13:37:03 10° SSW daylight
